| time (UTC) | temp C | wind direction | speed KPH | gust KPH | rain 1hr cm | rain 24hr cm | rain mn cm | humidity % | barometer mb |
| 20260510104603 | 10 | 0 | 0.0 | 0.0 | 0.00 | 1.09 | 0.00 | 94 | 1011.5 |
| 20260510103059 | 10 | 0 | 0.0 | 0.0 | 0.00 | 1.09 | 0.00 | 94 | 1011.5 |
| 20260510101553 | 10 | 0 | 0.0 | 0.0 | 0.00 | 1.09 | 0.00 | 94 | 1011.5 |
| 20260510100055 | 10 | 0 | 0.0 | 0.0 | 0.00 | 1.09 | 0.00 | 94 | 1011.5 |
| 20260510094605 | 10 | 0 | 0.0 | 0.0 | 0.00 | 1.14 | 0.00 | 94 | 1011.3 |
| 20260510093111 | 10 | 0 | 0.0 | 0.0 | 0.00 | 1.14 | 0.00 | 94 | 1011.2 |
| 20260510091550 | 10 | 0 | 0.0 | 0.0 | 0.00 | 1.14 | 0.00 | 94 | 1011.0 |
| 20260510090051 | 10 | 0 | 0.0 | 0.0 | 0.00 | 1.14 | 0.00 | 94 | 1010.8 |
| 20260510084554 | 10 | 0 | 0.0 | 0.0 | 0.00 | 1.17 | 0.00 | 94 | 1010.9 |
| 20260510083055 | 10 | 0 | 0.0 | 0.0 | 0.00 | 1.17 | 0.00 | 93 | 1010.7 |
| 20260510081554 | 10 | 0 | 0.0 | 0.0 | 0.00 | 1.17 | 0.00 | 93 | 1011.0 |
| 20260510080051 | 10 | 0 | 0.0 | 0.0 | 0.00 | 1.17 | 0.00 | 93 | 1010.9 |
| 20260510074552 | 10 | 0 | 0.0 | 0.0 | 0.00 | 1.27 | 0.00 | 93 | 1011.2 |
| 20260510073055 | 11 | 0 | 0.0 | 0.0 | 0.00 | 1.27 | 0.00 | 94 | 1011.2 |
| 20260510071556 | 11 | 0 | 0.0 | 0.0 | 0.00 | 1.27 | 0.00 | 94 | 1011.7 |
| 20260510070056 | 11 | 0 | 0.0 | 0.0 | 0.00 | 1.27 | 0.00 | 94 | 1011.6 |
| 20260510064551 | 11 | 0 | 0.0 | 3.2 | 0.00 | 1.27 | 0.00 | 94 | 1011.7 |
| 20260510063051 | 11 | 323 | 0.0 | 0.0 | 0.00 | 1.27 | 0.00 | 94 | 1011.6 |
| 20260510061553 | 11 | 0 | 0.0 | 0.0 | 0.00 | 1.27 | 0.00 | 94 | 1011.0 |
| 20260510060055 | 10 | 0 | 0.0 | 3.2 | 0.00 | 1.27 | 0.00 | 94 | 1011.0 |
| 20260510054552 | 10 | 0 | 0.0 | 0.0 | 0.00 | 1.27 | 0.00 | 94 | 1011.0 |
| 20260510053102 | 10 | 0 | 0.0 | 0.0 | 0.00 | 1.27 | 0.00 | 94 | 1011.0 |
| 20260510051558 | 10 | 0 | 0.0 | 0.0 | 0.00 | 1.27 | 0.00 | 94 | 1011.2 |
| 20260510050056 | 10 | 0 | 0.0 | 0.0 | 0.00 | 1.27 | 0.00 | 94 | 1011.0 |
| 20260510044554 | 10 | 0 | 0.0 | 0.0 | 0.00 | 1.27 | 0.00 | 94 | 1010.7 |
| 20260510043102 | 10 | 0 | 0.0 | 0.0 | 0.00 | 1.27 | 0.00 | 94 | 1010.8 |
| 20260510041550 | 10 | 0 | 0.0 | 0.0 | 0.00 | 1.27 | 0.00 | 93 | 1010.9 |
| 20260510040056 | 10 | 0 | 0.0 | 0.0 | 0.00 | 1.27 | 0.00 | 93 | 1010.8 |
| 20260510034555 | 10 | 0 | 0.0 | 0.0 | 0.00 | 1.27 | 1.27 | 92 | 1010.6 |
| 20260510033112 | 10 | 0 | 0.0 | 0.0 | 0.00 | 1.27 | 1.27 | 92 | 1010.7 |
| 20260510031557 | 10 | 0 | 0.0 | 0.0 | 0.00 | 1.27 | 1.27 | 93 | 1010.7 |
| 20260510030053 | 10 | 0 | 0.0 | 0.0 | 0.00 | 1.27 | 1.27 | 93 | 1010.7 |
| 20260510024552 | 10 | 0 | 0.0 | 0.0 | 0.00 | 1.27 | 1.27 | 93 | 1010.8 |
| 20260510023053 | 10 | 0 | 0.0 | 0.0 | 0.00 | 1.27 | 1.27 | 92 | 1010.6 |
| 20260510021553 | 11 | 0 | 0.0 | 0.0 | 0.00 | 1.27 | 1.27 | 92 | 1010.7 |
| 20260510020054 | 11 | 0 | 0.0 | 0.0 | 0.00 | 1.27 | 1.27 | 92 | 1010.2 |
| 20260510014553 | 11 | 0 | 0.0 | 0.0 | 0.00 | 1.27 | 1.27 | 92 | 1010.6 |
| 20260510013056 | 11 | 0 | 0.0 | 0.0 | 0.00 | 1.27 | 1.27 | 93 | 1010.6 |
| 20260510011558 | 11 | 0 | 0.0 | 0.0 | 0.00 | 1.27 | 1.27 | 92 | 1010.4 |
| 20260510010055 | 11 | 0 | 0.0 | 0.0 | 0.00 | 1.27 | 1.27 | 92 | 1010.1 |
| 20260510004600 | 11 | 0 | 0.0 | 0.0 | 0.00 | 1.27 | 1.27 | 92 | 1010.0 |
| 20260510003056 | 12 | 0 | 0.0 | 0.0 | 0.00 | 1.27 | 1.27 | 92 | 1010.0 |
| 20260510001551 | 12 | 0 | 0.0 | 3.2 | 0.00 | 1.27 | 1.27 | 92 | 1009.7 |
| 20260510000058 | 12 | 0 | 0.0 | 3.2 | 0.00 | 1.27 | 1.27 | 92 | 1009.5 |
| 20260509234548 | 12 | 0 | 0.0 | 3.2 | 0.00 | 1.27 | 1.27 | 92 | 1009.3 |
| 20260509233056 | 12 | 0 | 0.0 | 4.8 | 0.00 | 1.27 | 1.27 | 92 | 1009.2 |
| 20260509231553 | 12 | 0 | 0.0 | 0.0 | 0.00 | 1.27 | 1.27 | 92 | 1009.3 |
| 20260509230055 | 12 | 0 | 0.0 | 3.2 | 0.00 | 1.27 | 1.27 | 92 | 1009.4 |
| 20260509224554 | 13 | 0 | 0.0 | 3.2 | 0.00 | 1.27 | 1.27 | 92 | 1009.5 |
| 20260509223051 | 13 | 0 | 0.0 | 0.0 | 0.00 | 1.27 | 1.27 | 93 | 1009.3 |
| 20260509221550 | 13 | 0 | 0.0 | 3.2 | 0.00 | 1.27 | 1.27 | 93 | 1009.2 |
| 20260509220053 | 12 | 0 | 0.0 | 0.0 | 0.00 | 1.27 | 1.27 | 92 | 1009.3 |
| 20260509214610 | 13 | 0 | 0.0 | 3.2 | 0.03 | 1.27 | 1.27 | 92 | 1009.5 |
| 20260509213049 | 13 | 0 | 0.0 | 4.8 | 0.05 | 1.27 | 1.27 | 92 | 1009.5 |
| 20260509211555 | 13 | 173 | 0.0 | 6.4 | 0.10 | 1.27 | 1.27 | 93 | 1009.5 |
| 20260509210058 | 12 | 0 | 0.0 | 3.2 | 0.18 | 1.27 | 1.27 | 93 | 1009.6 |
| 20260509204554 | 12 | 0 | 0.0 | 6.4 | 0.20 | 1.24 | 1.24 | 93 | 1009.7 |
| 20260509203101 | 12 | 0 | 0.0 | 3.2 | 0.23 | 1.22 | 1.22 | 92 | 1010.0 |
| 20260509201556 | 12 | 0 | 0.0 | 6.4 | 0.23 | 1.14 | 1.14 | 92 | 1010.3 |
| 20260509200049 | 12 | 302 | 0.0 | 4.8 | 0.20 | 1.09 | 1.09 | 92 | 1010.4 |
| 20260509194552 | 12 | 143 | 0.0 | 3.2 | 0.25 | 1.04 | 1.04 | 92 | 1010.5 |
| 20260509193057 | 12 | 0 | 0.0 | 3.2 | 0.28 | 0.99 | 0.99 | 92 | 1010.7 |
| 20260509191600 | 12 | 121 | 0.0 | 3.2 | 0.23 | 0.91 | 0.91 | 93 | 1010.9 |
| 20260509190056 | 12 | 0 | 0.0 | 1.6 | 0.23 | 0.89 | 0.89 | 92 | 1011.2 |
| 20260509184558 | 12 | 269 | 0.0 | 3.2 | 0.20 | 0.79 | 0.79 | 92 | 1011.6 |
| 20260509183058 | 12 | 0 | 0.0 | 3.2 | 0.18 | 0.71 | 0.71 | 92 | 1011.5 |
| 20260509181557 | 12 | 0 | 0.0 | 3.2 | 0.18 | 0.69 | 0.69 | 92 | 1011.3 |
| 20260509180054 | 12 | 302 | 0.0 | 4.8 | 0.18 | 0.66 | 0.66 | 91 | 1011.2 |
| 20260509174619 | 11 | 334 | 0.0 | 4.8 | 0.13 | 0.58 | 0.58 | 91 | 1011.2 |
| 20260509173054 | 12 | 11 | 0.0 | 3.2 | 0.10 | 0.53 | 0.53 | 91 | 1011.1 |
| 20260509171552 | 11 | 0 | 0.0 | 0.0 | 0.13 | 0.51 | 0.51 | 91 | 1010.8 |
| 20260509170052 | 11 | 0 | 0.0 | 0.0 | 0.13 | 0.48 | 0.48 | 91 | 1011.1 |
| 20260509164553 | 11 | 0 | 0.0 | 1.6 | 0.13 | 0.46 | 0.46 | 91 | 1011.3 |
| 20260509163057 | 11 | 9 | 0.0 | 4.8 | 0.15 | 0.43 | 0.43 | 91 | 1011.6 |
| 20260509161551 | 11 | 0 | 0.0 | 3.2 | 0.10 | 0.38 | 0.38 | 91 | 1011.9 |
| 20260509160055 | 10 | 0 | 0.0 | 0.0 | 0.10 | 0.36 | 0.36 | 91 | 1012.1 |
| 20260509154555 | 10 | 0 | 0.0 | 0.0 | 0.08 | 0.33 | 0.33 | 90 | 1012.4 |
| 20260509153115 | 10 | 0 | 0.0 | 3.2 | 0.03 | 0.28 | 0.28 | 90 | 1012.3 |
| 20260509151556 | 10 | 14 | 0.0 | 3.2 | 0.03 | 0.28 | 0.28 | 90 | 1012.2 |
| 20260509150058 | 10 | 9 | 1.6 | 4.8 | 0.00 | 0.25 | 0.25 | 90 | 1012.2 |
| 20260509144559 | 10 | 0 | 0.0 | 3.2 | 0.03 | 0.25 | 0.25 | 90 | 1012.3 |
| 20260509143055 | 10 | 0 | 0.0 | 3.2 | 0.03 | 0.25 | 0.25 | 91 | 1012.4 |
| 20260509141551 | 9 | 0 | 0.0 | 1.6 | 0.03 | 0.25 | 0.25 | 91 | 1012.5 |
| 20260509140051 | 8 | 0 | 0.0 | 3.2 | 0.03 | 0.25 | 0.25 | 91 | 1012.5 |
| 20260509134552 | 8 | 0 | 0.0 | 3.2 | 0.00 | 0.23 | 0.23 | 91 | 1012.8 |
| 20260509133054 | 8 | 0 | 0.0 | 0.0 | 0.00 | 0.23 | 0.23 | 91 | 1012.7 |
| 20260509131552 | 8 | 0 | 0.0 | 3.2 | 0.03 | 0.23 | 0.23 | 92 | 1012.9 |
| 20260509130105 | 7 | 0 | 0.0 | 3.2 | 0.03 | 0.23 | 0.23 | 91 | 1012.5 |
| 20260509124557 | 7 | 0 | 0.0 | 4.8 | 0.03 | 0.23 | 0.23 | 92 | 1012.4 |
| 20260509123057 | 7 | 148 | 0.0 | 3.2 | 0.00 | 0.20 | 0.20 | 92 | 1012.5 |
| 20260509121614 | 7 | 0 | 0.0 | 0.0 | 0.03 | 0.20 | 0.20 | 91 | 1012.9 |
| 20260509120051 | 7 | 149 | 0.0 | 1.6 | 0.03 | 0.20 | 0.20 | 92 | 1013.0 |
| 20260509114600 | 7 | 0 | 0.0 | 0.0 | 0.03 | 0.20 | 0.20 | 92 | 1013.0 |
| 20260509113101 | 7 | 0 | 0.0 | 0.0 | 0.03 | 0.20 | 0.20 | 92 | 1013.1 |
| 20260509111553 | 7 | 0 | 0.0 | 0.0 | 0.00 | 0.18 | 0.18 | 91 | 1013.2 |
| 20260509110056 | 7 | 0 | 0.0 | 0.0 | 0.00 | 0.18 | 0.18 | 91 | 1013.0 |